Astoria, OR

1:21 AM PST on January 22, 2017 (GMT -0800)
Astoria Regional

Weather History for KAST - February, 2014

Change the Weather History Date:

Monday, February 10, 2014

  Actual Average Record
Temperature  
Mean Temperature 45 °F 44 °F  
Max Temperature 52 °F 51 °F 68 °F (1963)
Min Temperature 38 °F 37 °F 14 °F (1933)
Degree Days  
Heating Degree Days 20 21  
Month to date heating degree days 298 210  
Since 1 July heating degree days 3100 2975  
Cooling Degree Days 0 0  
Month to date cooling degree days 0 0  
Year to date cooling degree days 0 0  
Moisture  
Dew Point 44 °F    
Average Humidity 88    
Maximum Humidity 93    
Minimum Humidity 83    
Precipitation  
Precipitation 0.41 in 0.27 in 2.57 in (1949)
Month to date precipitation 0.77 2.70  
Year to date precipitation 7.13 12.90  
Sea Level Pressure  
Sea Level Pressure 30.07 in    
Wind  
Wind Speed 12 mph (SSW)    
Max Wind Speed 22 mph    
Max Gust Speed 33 mph    
Visibility 6 miles    
Events Rain    
T = Trace of Precipitation, MM = Missing Value Source: NWS Daily Summary

Daily Weather History Graph

Daily Weather History Graph

Search for Another Location

Airport or City:

Trip Planner

Search our weather history database for the weather conditions in past years. The results will help you decide how hot, cold, wet, or windy it might be!

Date:

Astronomy

Feb. 10, 2014 Rise Set
Actual Time 7:25 AM PST 5:34 PM PST
Civil Twilight 6:54 AM PST 6:05 PM PST
Nautical Twilight 6:19 AM PST 6:40 PM PST
Astronomical Twilight 5:44 AM PST 7:15 PM PST
Moon 2:02 PM PST (2/10) 4:29 AM PST (2/10)
Length of Visible Light 11h 10m
Length of Day
10h 08m
Waxing Gibbous, 85% of the Moon is Illuminated
Feb 10
Waxing Gibbous
Feb 14
Full
Feb 22
Last Quarter
Mar 1
New
Mar 8
First Quarter

Hourly Weather History & Observations

Time (PST) Temp. Windchill Dew Point Humidity Pressure Visibility Wind Dir Wind Speed Gust Speed Precip Events Conditions
12:55 AM 37.9 °F 34.4 °F 35.1 °F 89% 30.02 in 10.0 mi East 4.6 mph - N/A   Overcast
1:55 AM 39.0 °F 34.8 °F 35.1 °F 86% 30.01 in 10.0 mi East 5.8 mph - 0.00 in   Overcast
2:55 AM 39.9 °F 36.7 °F 36.0 °F 86% 30.01 in 10.0 mi East 4.6 mph - 0.00 in Rain Light Rain
3:55 AM 39.9 °F 37.8 °F 36.0 °F 86% 30.01 in 10.0 mi NNW 3.5 mph - 0.00 in   Overcast
4:55 AM 39.9 °F 37.8 °F 37.0 °F 89% 30.01 in 10.0 mi NNW 3.5 mph - N/A   Overcast
5:24 AM 39.9 °F - 37.0 °F 89% 30.01 in 5.0 mi Calm Calm - 0.04 in Rain Light Rain
5:55 AM 39.9 °F 33.9 °F 37.0 °F 89% 30.00 in 10.0 mi East 9.2 mph - 0.04 in Rain Light Rain
6:21 AM 39.9 °F 35.1 °F 37.0 °F 89% 30.00 in 2.5 mi East 6.9 mph - 0.04 in Rain Light Rain
6:23 AM 39.9 °F 36.7 °F 37.0 °F 89% 30.00 in 3.0 mi East 4.6 mph - 0.04 in Rain Light Rain
6:27 AM 39.9 °F - 37.9 °F 93% 30.00 in 2.5 mi Calm Calm - 0.05 in Rain Light Rain
6:39 AM 39.9 °F - 37.9 °F 93% 30.01 in 2.5 mi Calm Calm - 0.06 in Rain Light Rain
6:55 AM 39.9 °F 36.7 °F 37.9 °F 93% 30.01 in 2.5 mi Variable 4.6 mph - 0.07 in Rain Light Rain
7:02 AM 41.0 °F 39.0 °F 39.0 °F 93% 30.02 in 4.0 mi Variable 3.5 mph - 0.00 in   Overcast
7:55 AM 48.9 °F - 45.0 °F 86% 30.04 in 4.0 mi SSW 19.6 mph 31.1 mph 0.02 in Rain Light Rain
8:02 AM 48.9 °F - 46.0 °F 90% 30.04 in 2.0 mi SSW 17.3 mph 31.1 mph 0.00 in Rain Light Rain
8:08 AM 48.9 °F - 46.0 °F 90% 30.04 in 1.8 mi SSW 15.0 mph 29.9 mph 0.00 in Rain Light Rain
8:13 AM 48.9 °F - 46.0 °F 90% 30.05 in 2.0 mi SSW 18.4 mph 25.3 mph 0.01 in Rain Light Rain
8:35 AM 48.9 °F - 46.0 °F 90% 30.05 in 2.0 mi SSW 16.1 mph 29.9 mph 0.01 in Rain Light Rain
8:53 AM 48.2 °F - 46.4 °F 93% 30.06 in 2.5 mi SSW 18.4 mph 28.8 mph 0.02 in Rain Light Rain
8:55 AM 48.9 °F - 46.0 °F 90% 30.06 in 3.0 mi SSW 18.4 mph 28.8 mph 0.02 in Rain Light Rain
9:14 AM 48.9 °F - 46.0 °F 90% 30.07 in 10.0 mi SSW 16.1 mph 29.9 mph 0.00 in   Overcast
9:31 AM 50.0 °F - 46.9 °F 89% 30.07 in 1.8 mi SSW 19.6 mph 29.9 mph 0.00 in Rain Light Rain
9:42 AM 50.0 °F - 46.9 °F 89% 30.07 in 3.0 mi SSW 13.8 mph 26.5 mph 0.01 in Rain Light Rain
9:55 AM 50.0 °F - 46.9 °F 89% 30.08 in 10.0 mi SSW 17.3 mph 25.3 mph 0.01 in   Overcast
10:15 AM 50.0 °F - 46.9 °F 89% 30.09 in 10.0 mi SW 15.0 mph 23.0 mph N/A   Overcast
10:55 AM 50.0 °F - 46.9 °F 89% 30.10 in 10.0 mi SW 15.0 mph 24.2 mph 0.00 in   Overcast
11:09 AM 50.0 °F - 46.9 °F 89% 30.10 in 10.0 mi SW 12.7 mph 19.6 mph N/A   Overcast
11:30 AM 50.0 °F - 46.9 °F 89% 30.10 in 10.0 mi SSW 12.7 mph - 0.01 in   Overcast
11:55 AM 51.1 °F - 46.9 °F 86% 30.11 in 10.0 mi SSW 15.0 mph 23.0 mph 0.01 in   Overcast
12:10 PM 51.1 °F - 48.0 °F 89% 30.10 in 10.0 mi SW 12.7 mph 24.2 mph N/A   Mostly Cloudy
12:55 PM 51.1 °F - 48.0 °F 89% 30.11 in 8.0 mi SW 17.3 mph 26.5 mph N/A   Overcast
1:55 PM 51.1 °F - 46.9 °F 86% 30.10 in 8.0 mi SSW 19.6 mph 26.5 mph N/A   Overcast
2:15 PM 51.1 °F - 46.9 °F 86% 30.10 in 8.0 mi SSW 18.4 mph 25.3 mph N/A   Overcast
2:39 PM 51.1 °F - 46.9 °F 86% 30.09 in 8.0 mi SSW 15.0 mph 27.6 mph N/A   Overcast
2:48 PM 51.1 °F - 46.9 °F 86% 30.09 in 8.0 mi SSW 16.1 mph 24.2 mph N/A   Overcast
2:55 PM 51.1 °F - 46.9 °F 86% 30.09 in 8.0 mi SSW 16.1 mph 25.3 mph N/A   Overcast
3:14 PM 51.1 °F - 46.9 °F 86% 30.08 in 9.0 mi SSW 15.0 mph 26.5 mph N/A   Overcast
3:55 PM 50.0 °F - 46.0 °F 86% 30.09 in 4.0 mi SSW 12.7 mph 29.9 mph 0.04 in Rain Light Rain
4:02 PM 48.9 °F - 46.0 °F 90% 30.09 in 1.8 mi SSW 13.8 mph 20.7 mph 0.04 in Rain Heavy Rain
4:11 PM 50.0 °F - 46.0 °F 86% 30.09 in 2.5 mi SSW 12.7 mph 23.0 mph 0.08 in Rain Light Rain
4:19 PM 48.9 °F - 46.0 °F 90% 30.09 in 5.0 mi South 13.8 mph 21.9 mph 0.09 in Rain Light Rain
4:28 PM 50.0 °F - 46.0 °F 86% 30.09 in 9.0 mi SSW 15.0 mph 24.2 mph 0.09 in Rain Light Rain
4:39 PM 48.9 °F - 46.0 °F 90% 30.09 in 2.5 mi SSW 17.3 mph 25.3 mph 0.10 in Rain Light Rain
4:44 PM 48.9 °F - 46.0 °F 90% 30.09 in 3.0 mi South 16.1 mph 26.5 mph 0.11 in Rain Light Rain
4:53 PM 48.2 °F - 46.4 °F 93% 30.09 in 6.0 mi SSW 16.1 mph 23.0 mph 0.12 in Rain Light Rain
4:55 PM 48.9 °F - 46.0 °F 90% 30.09 in 6.0 mi SSW 13.8 mph 23.0 mph 0.12 in Rain Light Rain
5:55 PM 48.9 °F - 46.0 °F 90% 30.11 in 4.0 mi SSW 16.1 mph 26.5 mph 0.06 in Rain Light Rain
6:55 PM 48.9 °F - 46.0 °F 90% 30.11 in 4.0 mi SSW 12.7 mph 18.4 mph 0.00 in Rain Light Rain
7:13 PM 48.9 °F - 46.0 °F 90% 30.10 in 6.0 mi SSW 10.4 mph - 0.01 in Rain Light Rain
7:55 PM 48.9 °F - 46.0 °F 90% 30.10 in 8.0 mi SSW 15.0 mph 24.2 mph 0.02 in Rain Light Rain
8:55 PM 48.9 °F - 46.9 °F 93% 30.10 in 3.0 mi SW 13.8 mph - 0.00 in   Overcast
9:55 PM 48.9 °F - 46.9 °F 93% 30.10 in 4.0 mi SW 11.5 mph - N/A   Overcast
10:55 PM 48.9 °F - 46.9 °F 93% 30.12 in 5.0 mi SW 13.8 mph 18.4 mph N/A   Overcast
11:55 PM 48.9 °F - 46.9 °F 93% 30.11 in 5.0 mi SW 10.4 mph - N/A   Overcast